Olivia, MN

11:29 PM CST on November 21, 2019 (GMT -0600)
Olivia Regional

Weather History for KOVL - October, 2019

Change the Weather History Date:

Monday, October 21, 2019

  Actual Average (WUND) Record (WUND)
Temperature  
Mean Temperature 47 °F -  
Max Temperature 53 °F - - (-1)
Min Temperature 41 °F - - (-1)
Degree Days  
Heating Degree Days 18    
Moisture  
Dew Point 42 °F    
Average Humidity 89    
Maximum Humidity 100    
Minimum Humidity 62    
Precipitation  
Precipitation 1.37 in - - ()
Sea Level Pressure  
Sea Level Pressure 29.33 in    
Wind  
Wind Speed 14 mph ()    
Max Wind Speed 33 mph    
Max Gust Speed 44 mph    
Visibility 6.2 miles    
Events Rain    
Averages and records for this station are not official NWS values.
T = Trace of Precipitation, MM = Missing Value Source: Averaged Metar Reports

Daily Weather History Graph

Daily Weather History Graph

Search for Another Location

Airport or City:

Astronomy

Oct. 21, 2019 Rise Set
Actual Time 7:43 AM CDT 6:25 PM CDT
Civil Twilight 7:13 AM CDT 6:55 PM CDT
Nautical Twilight 6:39 AM CDT 7:29 PM CDT
Astronomical Twilight 6:05 AM CDT 8:03 PM CDT
Moon No Moon Rise 3:10 PM CDT (10/21)
Length of Visible Light 11h 42m
Length of Day
10h 42m
Waning Gibbous, 48% of the Moon is Illuminated
Oct 21
Waning Gibbous
Oct 27
New
Nov 4
First Quarter
Nov 12
Full
Nov 19
Last Quarter

Hourly Weather History & Observations

Time (CDT) Temp. Windchill Dew Point Humidity Pressure Visibility Wind Dir Wind Speed Gust Speed Precip Events Conditions
12:21 AM 53.6 °F - 41.0 °F 62% 29.66 in 10.0 mi ESE 9.2 mph - N/A   Mostly Cloudy
12:37 AM 53.6 °F - 41.0 °F 62% 29.65 in 10.0 mi ESE 10.4 mph - N/A   Mostly Cloudy
1:23 AM 53.6 °F - 41.0 °F 62% 29.60 in 10.0 mi ESE 16.1 mph 20.7 mph N/A   Overcast
1:38 AM 53.6 °F - 41.0 °F 62% 29.60 in 10.0 mi ESE 12.7 mph 19.6 mph N/A   Overcast
1:55 AM 53.6 °F - 41.0 °F 62% 29.59 in 10.0 mi ESE 13.8 mph 19.6 mph N/A   Overcast
1:56 AM 53.6 °F - 41.0 °F 62% 29.59 in 10.0 mi ESE 11.5 mph 19.6 mph N/A   Overcast
2:24 AM 51.8 °F - 42.8 °F 71% 29.57 in 10.0 mi ESE 11.5 mph 16.1 mph N/A Rain Light Rain
2:40 AM 51.8 °F - 42.8 °F 71% 29.57 in 10.0 mi ESE 11.5 mph 19.6 mph N/A   Overcast
2:55 AM 51.8 °F - 42.8 °F 71% 29.56 in 10.0 mi ESE 11.5 mph 18.4 mph N/A   Overcast
3:26 AM 51.8 °F - 41.0 °F 67% 29.53 in 10.0 mi ESE 15.0 mph 23.0 mph N/A   Overcast
3:41 AM 50.0 °F - 42.8 °F 76% 29.52 in 7.0 mi ESE 15.0 mph 25.3 mph 0.01 in Rain Light Rain
3:57 AM 50.0 °F - 42.8 °F 76% 29.50 in 7.0 mi East 9.2 mph - 0.06 in Rain Rain
4:15 AM 50.0 °F - 42.8 °F 76% 29.49 in 10.0 mi East 15.0 mph 21.9 mph N/A Rain Light Rain
4:43 AM 50.0 °F - 41.0 °F 71% 29.47 in 10.0 mi East 13.8 mph 24.2 mph N/A   Overcast
4:58 AM 50.0 °F - 41.0 °F 71% 29.46 in 10.0 mi East 16.1 mph 23.0 mph N/A   Overcast
5:15 AM 50.0 °F - 41.0 °F 71% 29.45 in 10.0 mi East 17.3 mph 25.3 mph N/A Rain Light Rain
5:44 AM 50.0 °F - 41.0 °F 71% 29.45 in 10.0 mi East 13.8 mph 19.6 mph N/A   Overcast
5:59 AM 50.0 °F - 41.0 °F 71% 29.45 in 10.0 mi East 9.2 mph - 0.01 in Rain Light Rain
6:15 AM 50.0 °F - 42.8 °F 76% 29.45 in 10.0 mi ESE 11.5 mph 17.3 mph 0.01 in Rain Light Rain
6:46 AM 46.4 °F 42.4 °F 44.6 °F 93% 29.45 in 5.0 mi East 8.1 mph - 0.07 in Rain Rain
7:01 AM 46.4 °F 41.5 °F 44.6 °F 93% 29.43 in 4.0 mi East 10.4 mph - 0.01 in Rain Rain
7:16 AM 46.4 °F 42.4 °F 44.6 °F 93% 29.42 in 7.0 mi East 8.1 mph - 0.03 in Rain Light Rain
7:35 AM 44.6 °F 39.2 °F 44.6 °F 100% 29.39 in 7.0 mi ENE 10.4 mph - 0.06 in Rain Light Rain
7:36 AM 44.6 °F 39.2 °F 44.6 °F 100% 29.39 in 7.0 mi ENE 10.4 mph - 0.06 in Rain Light Rain
8:03 AM 44.6 °F 38.8 °F 44.6 °F 100% 29.38 in 7.0 mi ENE 11.5 mph 19.6 mph 0.01 in Rain Rain
8:18 AM 44.6 °F 40.2 °F 44.6 °F 100% 29.38 in 5.0 mi ENE 8.1 mph 16.1 mph 0.04 in Rain Light Rain
8:35 AM 44.6 °F 38.8 °F 44.6 °F 100% 29.37 in 7.0 mi NE 11.5 mph 20.7 mph 0.05 in Rain Light Rain
9:04 AM 44.6 °F 37.8 °F 44.6 °F 100% 29.35 in 4.0 mi NE 15.0 mph 18.4 mph 0.01 in Rain Rain
9:19 AM 44.6 °F 38.1 °F 44.6 °F 100% 29.36 in 4.0 mi ENE 13.8 mph 17.3 mph 0.06 in Rain Rain
9:35 AM 44.6 °F 38.4 °F 44.6 °F 100% 29.35 in 2.0 mi NE 12.7 mph - 0.17 in Rain Heavy Rain
9:36 AM 44.6 °F 38.8 °F 44.6 °F 100% 29.35 in 2.0 mi NE 11.5 mph - 0.17 in Rain Rain
10:06 AM 44.6 °F 38.8 °F 44.6 °F 100% 29.33 in 3.0 mi NE 11.5 mph 16.1 mph 0.02 in Rain Rain
10:21 AM 44.6 °F 38.1 °F 44.6 °F 100% 29.32 in 4.0 mi NE 13.8 mph - 0.06 in Rain Rain
10:36 AM 44.6 °F 38.4 °F 44.6 °F 100% 29.31 in 5.0 mi NNE 12.7 mph - 0.08 in Rain Light Rain
10:55 AM 44.6 °F 37.8 °F 42.8 °F 93% 29.29 in 5.0 mi NNE 15.0 mph 18.4 mph 0.10 in Rain Light Rain
10:56 AM 44.6 °F 37.4 °F 42.8 °F 93% 29.29 in 5.0 mi NNE 16.1 mph - 0.10 in Rain Light Rain
11:23 AM 44.6 °F 37.2 °F 42.8 °F 93% 29.26 in 5.0 mi NNE 17.3 mph 23.0 mph 0.02 in Rain Light Rain
11:38 AM 44.6 °F 36.6 °F 42.8 °F 93% 29.25 in 5.0 mi NNE 19.6 mph 28.8 mph 0.03 in Rain Light Rain
11:55 AM 44.6 °F 36.4 °F 42.8 °F 93% 29.24 in 5.0 mi NNE 20.7 mph 25.3 mph 0.04 in Rain Light Rain
12:24 PM 44.6 °F 36.6 °F 42.8 °F 93% 29.22 in 5.0 mi NNE 19.6 mph 26.5 mph 0.01 in Rain Light Rain
12:39 PM 44.6 °F 36.9 °F 42.8 °F 93% 29.22 in 5.0 mi NNE 18.4 mph 26.5 mph 0.03 in Rain Rain
12:55 PM 44.6 °F 37.8 °F 42.8 °F 93% 29.21 in 5.0 mi NNE 15.0 mph 19.6 mph 0.05 in Rain Light Rain
12:56 PM 44.6 °F 37.8 °F 42.8 °F 93% 29.21 in 5.0 mi NNE 15.0 mph 19.6 mph 0.05 in Rain Light Rain
1:25 PM 44.6 °F 37.4 °F 42.8 °F 93% 29.19 in 4.0 mi North 16.1 mph 20.7 mph 0.04 in Rain Rain
1:41 PM 44.6 °F 38.4 °F 42.8 °F 93% 29.18 in 4.0 mi North 12.7 mph 20.7 mph 0.06 in Rain Light Rain
1:56 PM 44.6 °F 37.4 °F 42.8 °F 93% 29.17 in 5.0 mi North 16.1 mph 20.7 mph 0.08 in Rain Rain
2:23 PM 44.6 °F 38.1 °F 42.8 °F 93% 29.16 in 5.0 mi North 13.8 mph 20.7 mph 0.04 in Rain Rain
2:39 PM 44.6 °F 38.4 °F 42.8 °F 93% 29.15 in 5.0 mi North 12.7 mph 19.6 mph 0.06 in Rain Rain
2:55 PM 44.6 °F 38.1 °F 42.8 °F 93% 29.15 in 4.0 mi NNW 13.8 mph 23.0 mph 0.09 in Rain Rain
3:25 PM 42.8 °F 35.1 °F 42.8 °F 100% 29.15 in 5.0 mi NNW 16.1 mph 23.0 mph 0.05 in Rain Rain
3:40 PM 42.8 °F 34.5 °F 42.8 °F 100% 29.16 in 4.0 mi NNW 18.4 mph 25.3 mph 0.07 in Rain Rain
3:55 PM 42.8 °F 34.5 °F 41.0 °F 93% 29.16 in 4.0 mi NNW 18.4 mph 23.0 mph 0.10 in Rain Rain
4:15 PM 42.8 °F 34.8 °F 41.0 °F 93% 29.16 in 3.0 mi NNW 17.3 mph 27.6 mph 0.04 in Rain Rain
4:42 PM 42.8 °F 34.5 °F 41.0 °F 93% 29.16 in 3.0 mi NNW 18.4 mph 28.8 mph 0.11 in Rain Rain
4:57 PM 42.8 °F 34.8 °F 41.0 °F 93% 29.17 in 3.0 mi NNW 17.3 mph 25.3 mph 0.15 in Rain Rain
5:15 PM 42.8 °F 33.8 °F 41.0 °F 93% 29.16 in 4.0 mi NNW 21.9 mph 33.4 mph 0.04 in Rain Rain
5:43 PM 41.0 °F 31.1 °F 41.0 °F 100% 29.16 in 4.0 mi NNW 23.0 mph 35.7 mph 0.10 in Rain Rain
5:58 PM 41.0 °F 30.7 °F 41.0 °F 100% 29.16 in 5.0 mi NNW 25.3 mph 38.0 mph 0.12 in Rain Light Rain
6:15 PM 41.0 °F 31.6 °F 41.0 °F 100% 29.17 in 5.0 mi NNW 20.7 mph 29.9 mph 0.03 in Rain Rain
6:16 PM 41.0 °F 31.1 °F 41.0 °F 100% 29.17 in 5.0 mi NW 23.0 mph 29.9 mph 0.03 in Rain Rain
6:44 PM 41.0 °F 31.9 °F 41.0 °F 100% 29.18 in 4.0 mi NW 19.6 mph 29.9 mph 0.09 in Rain Light Rain
7:00 PM 41.0 °F 30.2 °F 41.0 °F 100% 29.19 in 5.0 mi NW 27.6 mph 35.7 mph N/A Rain Light Rain
7:15 PM 41.0 °F 30.5 °F 41.0 °F 100% 29.20 in 4.0 mi NNW 26.5 mph 34.5 mph 0.03 in Rain Rain
7:35 PM 41.0 °F 30.5 °F 39.2 °F 93% 29.21 in 5.0 mi NNW 26.5 mph 36.8 mph 0.06 in Rain Light Rain
8:02 PM 41.0 °F 30.0 °F 39.2 °F 93% 29.22 in 5.0 mi NNW 28.8 mph 38.0 mph N/A Rain Light Rain
8:17 PM 41.0 °F 29.5 °F 39.2 °F 93% 29.23 in 5.0 mi NNW 32.2 mph 40.3 mph 0.02 in Rain Rain
8:35 PM 41.0 °F 30.0 °F 39.2 °F 93% 29.25 in 7.0 mi NNW 28.8 mph 40.3 mph 0.02 in Rain Light Rain
9:18 PM 41.0 °F 29.7 °F 39.2 °F 93% 29.27 in 5.0 mi NNW 31.1 mph 42.6 mph 0.02 in Rain Light Rain
9:35 PM 41.0 °F 29.7 °F 39.2 °F 93% 29.28 in 5.0 mi NNW 31.1 mph 43.7 mph 0.03 in Rain Rain
9:36 PM 41.0 °F 29.3 °F 39.2 °F 93% 29.28 in 5.0 mi NNW 33.4 mph 43.7 mph 0.03 in Rain Light Rain
10:04 PM 41.0 °F 29.8 °F 39.2 °F 93% 29.30 in 7.0 mi NNW 29.9 mph 39.1 mph N/A Rain Light Rain
10:20 PM 41.0 °F 30.2 °F 39.2 °F 93% 29.30 in 10.0 mi NNW 27.6 mph 42.6 mph N/A   Light Drizzle
10:35 PM 41.0 °F 30.9 °F 41.0 °F 100% 29.31 in 10.0 mi NNW 24.2 mph 33.4 mph 0.01 in   Overcast
10:55 PM 42.8 °F 33.1 °F 41.0 °F 93% 29.32 in 10.0 mi NW 25.3 mph 29.9 mph 0.01 in Rain Light Rain
11:22 PM 41.0 °F 29.8 °F 41.0 °F 100% 29.33 in 4.0 mi NW 29.9 mph 40.3 mph 0.01 in   Light Drizzle
11:37 PM 41.0 °F 30.0 °F 39.2 °F 93% 29.34 in 5.0 mi NW 28.8 mph 41.4 mph 0.01 in   Overcast
11:55 PM 41.0 °F 30.2 °F 39.2 °F 93% 29.35 in 5.0 mi NW 27.6 mph 41.4 mph 0.01 in   Overcast